ORBCOMM FM 5

Satellite information

Favourite Embed

Satellite Type and Status

PAYLOADIN ORBIT

Key statistics

Satellite ORBCOMM FM 5 at a glance.

Uptime

10112

Days in orbit

Revolutions

≈ 14.5

Per day

Orbit

LEO

Low Earth Orbit

Inclination

45.0

Latest

Satellite identification and parameters

Extended collection of information and parameters for ORBCOMM FM 5.

Object identification

Identified? True

Debris? False

Object name: ORBCOMM FM 5

International designator: 1997-084F

Object number (NORAD): 25117

Object ID (CCSDS): 25117

Country: ORBITAL TELECOMMUNICATIONS SATELLITE (GLOBALSTAR) (ORB)

Current information (Y/N): Y

RCS size: MEDIUM

Orbital parameters

Period: 99.576 minutes

Inclination: 45.0163 deg

SMA: 7116.469 km

Apoapsis: 740.826 km

Periapsis: 735.842 km

RAAN: 21.2211 deg

Eccentricy: 0.00035022

Argument of periapsis: 207.4582 deg

Mean anomaly: 152.6085 deg

Mean motion: 14.46125316 rev/day

Mean motion (dot): 0.00001842 rev/day2

B* drag term: 0.00055083451 1/REarth

Two-line elements (TLE)

Creation date: Aug. 28, 2025, 11:13 p.m.

Reference frame: TEME

Reference center: EARTH

Epoch: Aug. 28, 2025, 9:54 a.m. UTC

TLE line 0: 0 ORBCOMM FM 5

TLE line 1: 1 25117U 97084F 25240.41308160 .00001842 00000-0 55083-3 0 9999

TLE line 2: 2 25117 45.0163 21.2211 0003502 207.4582 152.6085 14.46125316451060

Live tracking on map

Real-time ground track for satellite ORBCOMM FM 5.

In-orbit conjunctions

There are no conjunctions computed for ORBCOMM FM 5, at the moment. Check back to stay up to date, as we update our databases every day.

Go to all conjunctions

Associated space launch

ORBCOMM FM 5 was lifted into orbit during the mission ‘Pegasus XL HAPS | Orbcomm-A1 - A8’, on board a Pegasus XL HAPS space rocket.

The launch took place on Dec. 23, 1997, 7:11 p.m. from Wallops Flight Facility.

For more information about the launch, click the button.

Launch to space Pegasus XL HAPS | Orbcomm-A1 - A8
Pegasus XL HAPS | Orbcomm-A1 - A8

Agency: N/A

Status: Launch Successful

Launch date: Dec. 23, 1997, 7:11 p.m. UTC

Rocket: Pegasus XL HAPS

Launch pad: Wallops Flight Facility

Location: Air launch to orbit

...

Latest news about this satellite

There are no fresh news available about this satellite. Check back as we update our databases every day.


Newsletter sign-up

Weekly statistics, charts and insights to help you stay on top of the space industry.